Temperature
22 22 22 22 22 21 21 20 20 20 19 19 19 19 18 18 18 18 18 18 18 18 18 18 18 18 18 18 18 18 18 18 18 18 18 18 18 18 18 18 18 18 17
22 22 22 22 21 21 21 21 20 20 20 19 19 19 18 18 18 18 18 18 18 18 18 18 18 18 18 18 18 17 18 18 18 18 17 17 17 17 17 17 17 17 17
23 22 22 22 21 21 21 21 20 20 19 19 19 18 18 18 18 18 18 18 18 18 18 18 18 18 18 18 17 17 17 18 17 17 17 17 17 17 17 17 17 17 17
23 23 22 22 21 21 21 21 20 20 19 19 19 18 18 18 18 18 18 18 18 18 18 18 18 18 18 17 17 17 17 17 17 17 17 17 17 17 17 17 17 17 17
23 23 22 22 22 22 21 21 20 20 19 19 19 18 18 18 18 18 18 18 18 18 18 17 17 18 17 17 17 17 17 17 17 17 17 17 17 17 17 17 17 17 17
23 23 22 22 22 22 21 21 20 20 19 19 19 19 18 18 18 18 17 17 17 17 17 17 17 17 17 17 17 17 17 17 17 17 17 17 17 17 17 17 17 17 17
23 23 22 22 22 21 21 21 20 20 19 19 19 19 18 18 18 18 18 17 17 17 17 17 17 17 17 17 17 17 17 17 17 17 17 17 17 17 17 17 17 16 16
23 22 22 22 22 22 21 21 20 20 20 19 19 19 18 18 18 18 18 17 17 17 17 17 17 17 17 17 17 17 17 17 17 17 17 17 17 17 17 17 16 16 16
23 22 22 22 22 22 21 21 21 20 20 19 19 19 18 18 18 18 17 17 17 17 17 17 17 17 17 17 17 17 17 17 17 17 17 17 17 17 17 16 16 16 16
23 22 22 22 22 21 21 21 20 20 20 19 19 18 18 18 18 17 17 17 17 17 17 17 17 17 17 17 17 16 16 16 16 16 17 16 16 16 16 16 16 16 16
23 22 22 22 21 21 21 20 20 20 20 19 19 18 18 18 17 17 17 17 17 17 17 17 17 17 16 16 16 16 16 16 16 16 16 16 16 16 16 16 16 16 16
23 22 22 21 21 21 21 20 20 20 19 19 19 18 18 18 17 17 17 17 17 17 17 17 16 16 16 16 16 16 16 16 16 16 16 16 16 16 16 16 15 15 15
22 22 21 21 21 21 20 20 20 20 19 19 19 18 18 18 18 17 17 17 17 16 16 16 16 16 16 16 16 16 16 16 15 16 16 16 15 15 15 15 15 15 15
22 22 21 21 21 20 20 20 20 20 19 19 19 18 18 18 18 17 17 17 17 16 16 16 16 16 16 16 16 15 15 15 15 15 15 15 15 15 15 15 15 15 14
22 21 21 21 21 20 20 20 20 19 19 19 19 18 18 18 17 17 17 17 16 16 16 16 16 16 16 15 15 15 15 15 15 15 15 15 15 15 14 14 14 14 14
21 21 21 21 20 20 20 19 19 19 19 18 18 18 18 17 17 17 17 16 16 16 16 16 16 15 15 15 15 15 15 15 15 15 14 14 14 14 14 14 14 14 14
21 21 21 21 20 20 20 19 19 19 18 18 18 18 17 17 17 17 16 16 16 16 15 15 15 15 15 15 15 15 15 15 15 14 14 14 14 14 14 14 14 13 13
20 20 20 20 20 19 19 19 19 18 18 18 17 17 17 17 17 16 16 16 16 16 15 15 15 15 15 15 15 15 14 14 14 14 14 14 14 14 14 14 13 13 13
21 20 20 20 19 19 19 18 18 18 17 17 17 17 16 16 16 16 16 16 16 15 15 15 15 15 15 15 14 14 14 14 14 14 14 13 13 13 13 13 13 13 13
20 20 20 19 19 19 18 18 18 18 17 17 17 17 16 16 16 16 16 15 15 15 15 15 15 15 14 14 14 14 14 14 14 14 13 13 13 13 13 13 13 13 13
20 20 19 19 18 18 18 18 18 17 17 17 17 16 16 16 16 16 15 15 15 15 15 14 14 14 14 14 14 14 14 14 14 13 13 13 13 13 13 13 13 13 13
19 19 19 18 18 18 18 17 17 17 17 16 16 16 16 16 15 15 15 15 15 14 14 14 14 14 14 14 14 14 14 13 13 13 13 13 13 13 13 13 13 12 12
19 19 18 18 17 17 17 17 17 17 16 16 16 16 16 15 15 15 15 15 14 14 14 14 14 14 14 14 13 13 13 13 13 13 13 13 12 12 12 12 12 12 12
18 18 18 18 17 17 17 17 16 16 16 16 16 15 15 15 15 15 14 14 14 14 14 14 14 13 13 13 13 13 13 13 13 13 12 12 12 12 12 12 12 12 12
18 18 18 17 17 17 16 16 16 16 16 15 15 15 15 15 15 14 14 14 14 14 14 14 13 13 13 13 13 13 13 13 13 12 12 12 12 12 12 12 12 12 12
18 17 17 17 17 16 16 16 16 15 15 15 15 15 15 15 14 14 14 14 14 14 14 14 13 13 13 13 13 13 13 12 12 12 12 12 12 12 12 12 12 12 11
Wind_Speed
10 11 11 11 10 9 8 7 7 6 5 3 3 2 2 1 1 2 3 3 3 4 3 2 1 1 2 1 1 1 1 1 1 2 2 3 2 1 0 1 2 2 4
10 11 10 10 10 10 9 8 7 7 6 4 3 3 3 2 2 1 2 2 3 3 3 3 2 1 1 1 1 1 1 1 1 2 2 2 3 3 1 1 1 2 2
14 13 12 10 10 9 9 9 7 6 6 5 3 2 2 2 1 1 1 1 3 3 3 3 2 2 2 2 1 2 2 1 0 1 3 2 2 2 2 1 1 1 1
12 12 12 11 11 11 10 8 7 7 6 6 6 5 4 3 3 2 2 1 2 2 3 3 3 3 2 2 1 2 1 2 0 1 0 2 3 2 1 2 2 0 1
14 14 14 14 12 11 10 8 7 7 7 7 7 6 4 3 2 2 2 1 1 1 2 3 2 2 2 2 2 1 1 2 2 1 1 0 0 2 2 1 2 2 1
12 12 11 11 10 10 9 8 8 7 7 7 7 7 6 5 3 2 2 1 1 1 1 2 2 2 2 2 2 2 2 2 2 1 1 1 1 2 2 2 2 1 2
11 11 11 11 10 10 10 9 9 8 8 8 8 7 7 6 5 4 4 3 1 1 2 2 2 2 2 2 2 2 2 2 2 2 2 2 2 2 3 3 2 1 2
11 12 12 11 10 11 11 10 9 8 8 8 7 6 6 5 4 5 4 4 3 3 3 3 3 3 2 3 2 2 3 2 2 2 2 1 1 1 2 3 3 1 1
10 11 11 10 10 10 10 10 9 8 8 9 7 6 6 5 5 4 4 3 3 3 3 3 3 2 2 2 3 2 3 2 2 2 2 2 1 1 1 2 3 4 2
9 10 10 9 8 9 8 8 9 9 7 7 7 6 5 5 5 4 4 3 3 2 2 2 3 3 3 3 2 2 2 2 3 2 2 2 2 1 1 1 1 2 4
11 10 9 9 8 7 7 8 8 7 7 7 6 5 5 5 5 4 4 4 4 4 4 3 3 3 3 3 2 3 2 2 2 2 2 2 2 1 1 1 1 1 2
9 9 9 8 7 7 8 8 7 7 7 7 6 5 5 4 4 4 4 4 5 4 4 3 3 3 3 2 3 3 2 2 3 3 2 2 2 1 2 1 2 2 2
9 8 8 7 7 8 8 7 8 8 7 7 6 5 4 4 4 4 4 4 4 3 3 3 3 3 3 3 3 3 2 2 3 3 3 3 2 3 2 2 2 2 2
9 9 7 7 7 7 7 7 7 7 7 7 7 6 6 5 5 4 4 3 3 2 2 3 3 4 3 3 3 3 3 3 3 3 3 3 4 4 4 3 3 2 2
7 8 8 7 7 6 6 6 6 5 7 7 6 6 5 5 4 3 3 3 2 2 2 2 2 3 3 4 4 3 3 3 3 3 3 4 4 5 4 3 3 3 2
7 7 6 6 6 7 7 7 6 6 6 7 6 5 4 4 4 4 3 3 3 3 2 2 2 2 3 4 4 3 3 3 3 3 3 3 3 3 3 3 4 5 4
8 7 7 7 7 7 7 8 8 6 6 6 6 5 5 4 4 4 3 3 3 2 2 2 2 3 4 5 5 4 3 3 3 3 3 3 2 2 1 2 2 4 6
6 5 4 4 4 5 5 5 5 6 6 5 5 5 5 5 4 3 3 4 3 3 3 3 3 3 4 5 5 5 3 3 4 3 3 3 3 2 2 2 2 3 3
6 5 4 3 3 5 5 5 4 4 5 5 5 5 5 5 4 4 4 4 3 3 4 4 4 4 5 6 6 5 3 3 4 3 3 3 3 4 3 2 2 3 4
4 5 4 4 3 3 5 6 5 4 5 5 5 5 5 5 5 5 5 3 4 4 4 4 4 5 5 6 7 6 3 3 3 3 3 4 4 5 4 3 3 4 5
5 5 5 3 2 3 5 5 4 5 5 5 4 4 4 5 5 4 4 3 4 3 3 4 4 4 4 5 6 6 4 4 3 3 2 3 4 4 5 4 4 7 5
4 5 4 2 1 2 4 4 4 5 4 3 3 4 4 4 4 4 3 3 3 3 3 3 3 3 3 3 4 5 6 5 4 4 3 4 5 5 5 4 5 5 3
4 5 5 3 1 2 3 3 3 3 2 3 3 3 3 3 3 4 4 3 3 3 3 3 3 3 3 3 4 5 5 5 4 4 5 5 5 4 4 5 5 3 2
3 3 5 5 4 2 3 4 4 3 3 3 4 3 3 3 3 3 4 4 4 4 4 4 4 4 3 3 3 3 3 3 3 3 3 4 4 3 3 3 3 2 3
2 3 3 4 5 4 3 3 3 3 3 3 4 4 4 4 3 3 3 5 5 6 7 6 5 5 5 7 8 6 4 4 3 2 0 0 1 1 2 2 2 2 2
2 2 2 3 4 4 4 3 3 3 3 2 3 4 4 3 3 3 2 3 4 6 8 8 7 6 8 8 9 9 8 7 6 3 2 2 2 3 3 3 3 2 3
Wind_Direction
173 166 166 164 161 157 153 158 156 165 159 149 149 142 150 149 131 148 147 143 152 151 141 131 124 118 125 145 131 98 62 29 54 62 26 7 12 51 104 139 149 164 172
169 171 169 166 167 167 166 166 168 170 170 167 168 161 155 157 153 158 144 149 150 150 146 137 142 132 121 95 84 97 86 15 78 103 78 19 357 352 4 33 163 161 158
177 173 171 170 167 171 173 174 173 171 170 161 142 124 93 75 84 118 176 203 165 155 140 145 146 140 139 166 171 135 130 145 326 121 133 137 220 302 337 337 57 120 138
176 171 170 172 175 180 177 173 170 169 171 163 157 151 154 168 194 184 184 203 184 160 155 148 144 143 153 163 184 146 140 133 149 312 207 173 163 159 298 324 332 18 147
177 175 176 177 179 180 177 173 168 172 176 173 173 166 166 177 166 147 162 187 205 182 173 169 156 158 169 171 171 154 148 154 170 201 234 350 92 146 162 259 309 332 292
172 176 177 172 176 179 174 168 167 179 181 175 172 171 170 166 150 153 166 195 223 252 205 176 168 178 184 186 193 190 183 187 185 193 170 165 179 194 166 197 245 272 288
168 168 168 170 175 175 173 170 173 180 179 175 177 179 179 174 173 177 178 179 189 236 247 204 188 198 206 198 193 197 209 205 195 209 218 206 209 187 171 164 204 248 289
166 166 171 170 173 174 175 175 178 181 180 180 187 184 179 179 181 182 179 185 196 211 222 202 194 199 203 208 189 199 220 210 209 220 216 209 222 186 171 172 169 183 304
159 161 166 174 177 176 176 176 177 181 184 185 186 184 179 176 178 179 175 186 200 208 210 198 201 206 203 211 197 210 230 213 215 216 210 208 217 209 198 174 171 170 210
155 158 163 171 176 179 178 170 169 178 184 182 184 184 181 180 179 174 175 184 199 210 202 207 210 215 215 216 210 225 234 207 224 216 205 217 224 208 210 189 182 174 181
164 164 166 172 170 166 167 172 180 180 183 183 181 178 181 183 181 184 194 193 199 204 206 208 207 210 213 213 210 219 213 210 235 237 211 228 221 211 229 205 185 188 169
162 156 155 158 163 164 165 167 172 175 179 178 174 176 175 179 183 196 207 204 205 210 212 210 205 212 215 213 209 216 217 213 228 236 223 240 231 221 236 216 215 215 199
149 147 148 153 166 172 172 173 176 179 178 171 170 174 177 178 187 198 203 204 209 214 214 201 205 215 218 221 218 210 223 234 235 229 221 229 211 235 244 227 219 222 222
154 152 154 165 171 173 175 176 180 182 177 170 170 178 188 192 196 197 194 199 201 201 217 220 217 214 214 217 222 222 233 243 244 239 227 224 217 225 229 230 223 217 214
148 157 164 171 170 168 172 175 180 181 175 168 175 190 195 195 196 193 195 198 204 211 215 217 230 228 219 220 218 223 227 235 251 260 251 241 230 223 222 225 218 206 210
152 155 167 173 173 174 178 179 179 181 172 172 185 193 192 192 195 199 197 198 208 217 204 206 217 240 239 224 219 218 230 228 231 248 263 264 253 240 240 239 226 204 206
162 167 174 183 187 186 179 180 185 178 173 180 186 188 187 192 201 207 206 214 218 217 217 221 211 229 240 231 225 218 214 225 232 234 242 253 253 236 244 259 263 245 235
154 163 168 169 167 165 166 165 164 167 176 185 192 192 190 201 207 203 212 222 217 217 225 233 232 236 248 239 228 224 221 235 243 236 224 219 236 236 212 230 275 274 260
149 152 152 147 141 148 156 142 142 156 167 180 191 200 198 201 204 210 221 224 215 223 229 233 230 234 251 244 237 227 222 237 248 246 234 214 215 230 211 206 246 275 280
133 126 115 103 113 141 149 144 153 162 184 196 199 199 197 198 208 217 223 219 211 223 231 241 237 232 243 246 238 221 207 225 243 259 253 222 216 229 221 212 223 250 264
129 124 119 124 159 165 149 157 166 194 207 200 193 197 202 206 208 210 215 218 215 221 234 247 250 241 240 246 241 224 207 214 227 235 247 245 233 241 244 237 226 237 243
130 135 136 146 194 157 143 157 202 215 205 183 185 199 206 210 206 199 215 213 205 215 237 251 268 265 249 228 229 216 209 206 209 230 237 239 243 251 256 257 251 247 233
150 154 150 154 186 160 150 170 234 231 189 183 196 207 210 213 204 200 209 213 209 215 231 234 249 266 264 245 230 209 203 201 206 235 244 248 254 253 250 252 258 240 207
154 153 151 160 186 191 177 189 212 199 178 201 219 217 210 217 221 217 209 208 215 219 226 226 235 244 249 238 230 219 212 214 227 252 259 254 247 245 251 264 266 230 210
152 154 166 177 186 181 200 215 200 179 187 211 218 217 215 214 225 236 232 223 224 217 215 224 220 218 234 235 213 203 209 207 213 203 236 292 300 277 282 285 267 242 220
160 170 183 186 190 185 196 217 202 187 193 218 229 222 218 219 218 225 265 275 246 238 226 220 213 223 223 216 209 209 212 209 188 167 203 225 233 238 246 260 267 249 230
Height
1512 1515 1516 1518 1520 1521 1522 1523 1524 1525 1526 1527 1528 1528 1529 1530 1530 1530 1531 1532 1532 1532 1532 1532 1533 1533 1533 1533 1533 1533 1533 1533 1533 1533 1533 1534 1534 1534 1534 1535 1535 1535 1535
1511 1513 1515 1516 1518 1519 1521 1522 1523 1524 1525 1526 1527 1528 1528 1529 1529 1530 1530 1531 1531 1531 1532 1532 1532 1532 1532 1532 1533 1533 1533 1533 1533 1533 1533 1533 1534 1534 1534 1534 1534 1534 1534
1507 1510 1512 1514 1516 1518 1519 1520 1521 1522 1524 1525 1526 1527 1528 1528 1528 1529 1529 1530 1530 1531 1531 1531 1531 1531 1531 1532 1532 1532 1533 1532 1533 1533 1533 1533 1533 1533 1534 1533 1533 1533 1533
1505 1507 1509 1511 1513 1515 1517 1518 1519 1521 1522 1523 1524 1525 1525 1526 1527 1528 1528 1529 1529 1530 1530 1530 1530 1530 1530 1531 1531 1532 1532 1532 1532 1532 1532 1533 1532 1532 1532 1532 1532 1532 1532
1502 1504 1507 1508 1511 1514 1515 1517 1518 1519 1520 1522 1523 1523 1524 1525 1526 1527 1527 1528 1528 1529 1529 1529 1529 1529 1529 1530 1530 1530 1531 1531 1531 1531 1531 1531 1531 1531 1531 1530 1531 1531 1531
1500 1503 1506 1508 1510 1512 1514 1515 1516 1517 1519 1520 1521 1522 1523 1524 1524 1525 1526 1526 1527 1527 1528 1528 1528 1528 1528 1528 1529 1529 1529 1529 1529 1529 1529 1529 1529 1529 1529 1529 1529 1529 1529
1498 1501 1504 1506 1508 1510 1511 1512 1514 1515 1516 1518 1519 1521 1521 1522 1523 1523 1524 1524 1525 1525 1526 1526 1526 1526 1527 1527 1527 1527 1527 1527 1527 1527 1527 1527 1527 1527 1527 1527 1527 1527 1527
1496 1498 1500 1503 1505 1507 1508 1510 1511 1512 1514 1516 1517 1519 1520 1521 1521 1522 1523 1523 1524 1524 1524 1525 1525 1525 1525 1525 1525 1525 1525 1525 1525 1525 1525 1525 1525 1525 1525 1525 1525 1524 1525
1494 1496 1498 1501 1503 1505 1506 1508 1509 1511 1512 1514 1516 1517 1518 1519 1519 1520 1521 1521 1522 1522 1522 1522 1522 1522 1522 1522 1522 1522 1522 1522 1523 1523 1522 1522 1522 1523 1523 1523 1523 1523 1521
1492 1494 1496 1499 1501 1503 1504 1506 1508 1509 1511 1512 1514 1515 1516 1517 1518 1519 1519 1519 1520 1520 1520 1520 1520 1520 1520 1520 1520 1520 1520 1520 1520 1520 1520 1520 1520 1519 1520 1520 1520 1520 1519
1490 1492 1494 1497 1499 1501 1503 1505 1506 1507 1509 1510 1512 1513 1514 1515 1516 1516 1516 1517 1517 1517 1517 1517 1517 1517 1517 1517 1517 1517 1517 1517 1517 1517 1517 1517 1517 1517 1517 1517 1517 1517 1516
1488 1490 1493 1496 1498 1499 1501 1503 1504 1505 1507 1508 1510 1511 1512 1512 1513 1513 1514 1514 1514 1515 1515 1515 1514 1514 1514 1514 1514 1514 1515 1515 1514 1514 1514 1514 1514 1514 1514 1514 1513 1513 1513
1487 1489 1492 1494 1496 1498 1499 1500 1502 1503 1505 1506 1507 1508 1509 1509 1510 1510 1511 1511 1511 1511 1511 1511 1511 1511 1511 1511 1511 1511 1511 1511 1511 1511 1511 1511 1511 1511 1511 1510 1510 1509 1509
1486 1488 1490 1493 1494 1495 1497 1498 1499 1501 1502 1503 1504 1505 1506 1506 1507 1507 1508 1508 1508 1508 1508 1508 1508 1508 1508 1508 1508 1508 1508 1508 1508 1508 1508 1508 1508 1507 1507 1507 1506 1506 1506
1485 1486 1488 1490 1492 1493 1495 1496 1497 1499 1500 1501 1502 1502 1503 1504 1504 1505 1505 1505 1505 1505 1505 1505 1505 1505 1505 1505 1506 1506 1505 1505 1505 1505 1504 1504 1504 1504 1504 1504 1503 1503 1502
1484 1485 1487 1489 1490 1491 1493 1494 1495 1496 1498 1498 1499 1500 1501 1502 1502 1502 1502 1502 1502 1502 1502 1502 1502 1502 1502 1502 1502 1502 1502 1502 1501 1501 1501 1501 1501 1501 1501 1501 1500 1500 1499
1482 1484 1485 1486 1487 1489 1490 1491 1493 1494 1495 1496 1497 1497 1498 1499 1499 1499 1499 1499 1499 1499 1499 1499 1499 1499 1499 1499 1499 1499 1499 1498 1498 1498 1498 1498 1498 1498 1497 1497 1497 1497 1496
1480 1481 1482 1483 1485 1487 1488 1490 1491 1492 1493 1494 1494 1495 1496 1496 1497 1497 1496 1496 1496 1496 1496 1496 1496 1496 1496 1496 1496 1495 1495 1495 1495 1495 1495 1494 1494 1494 1494 1494 1493 1493 1493
1478 1480 1481 1483 1483 1484 1486 1488 1489 1490 1491 1491 1492 1492 1493 1493 1494 1494 1493 1494 1494 1493 1493 1493 1493 1493 1492 1492 1492 1492 1492 1491 1491 1491 1491 1492 1492 1492 1491 1491 1490 1490 1489
1478 1479 1481 1482 1483 1483 1485 1486 1487 1487 1488 1488 1489 1490 1490 1491 1491 1491 1491 1491 1491 1490 1490 1490 1490 1489 1489 1489 1489 1489 1488 1487 1487 1487 1488 1488 1489 1489 1488 1488 1487 1486 1486
1478 1479 1480 1481 1481 1482 1482 1483 1484 1484 1484 1485 1486 1487 1487 1488 1488 1488 1488 1488 1488 1487 1487 1487 1486 1486 1485 1485 1485 1485 1484 1484 1484 1484 1484 1485 1485 1485 1485 1485 1484 1483 1483
1477 1477 1478 1479 1480 1480 1480 1481 1482 1482 1482 1483 1483 1483 1484 1484 1485 1485 1485 1485 1485 1484 1483 1483 1482 1482 1482 1482 1482 1481 1481 1481 1480 1480 1481 1481 1481 1481 1481 1481 1480 1480 1479
1474 1476 1476 1476 1477 1478 1479 1479 1480 1480 1480 1480 1480 1480 1480 1481 1481 1481 1481 1481 1481 1480 1480 1479 1478 1478 1478 1478 1478 1478 1477 1477 1477 1477 1477 1477 1477 1477 1477 1477 1477 1476 1475
1472 1473 1473 1474 1475 1476 1477 1478 1478 1478 1478 1477 1477 1477 1477 1477 1477 1477 1477 1477 1477 1476 1476 1475 1475 1474 1474 1474 1474 1474 1474 1474 1473 1473 1473 1474 1474 1474 1474 1474 1473 1472 1472
1471 1471 1471 1472 1472 1472 1473 1474 1475 1475 1474 1474 1473 1473 1473 1473 1473 1473 1473 1473 1473 1473 1472 1472 1472 1471 1470 1470 1470 1470 1470 1470 1470 1470 1470 1471 1471 1470 1470 1470 1469 1469 1469
1468 1468 1468 1469 1469 1470 1470 1471 1472 1471 1471 1470 1470 1469 1469 1469 1469 1469 1469 1469 1469 1469 1468 1468 1468 1467 1467 1467 1467 1467 1467 1467 1467 1467 1467 1467 1467 1467 1466 1466 1466 1466 1465